Location: ?????
(37.7324°N, 23.9257°E)
Time: 21:37:16
(UTC+00:00)

CZ-4B DEB - Pass Details

Date: 29 November 2020
Orbit: 841 x 861 km, 99.1° (Epoch: 19 January)

Event Time Altitude Azimuth Distance (km) Brightness Sun altitude
Rises 04:29:59 0° 11° (N) 3,404 7.3 -9.7°
Reaches altitude 10° 04:32:21 10° 10° (N) 2,466 6.5 -9.3°
Maximum altitude 04:37:48 74° 286° (WNW) 877 4.2 -8.3°
Drops below altitude 10° 04:43:14 10° 202° (SSW) 2,459 6.6 -7.3°
Sets 04:45:36 0° 201° (SSW) 3,393 7.4 -6.9°
